[[{"header":{"parameterUnit":"m.s-1","parameterCategory":1,"la1":30.2992,"la2":30.254,"lo1":-89.0895,"lo2":-89.0443,"dy":0.0025,"dx":0.0025,"nx":19,"ny":19,"refTime":"2026-05-02T21:00:00:Z","depth":0,"parameterNumber":2,"parameterNumberName":"U-component_of_WINDS"},"data":[0,0,0,-0.6375,-0.6377,-0.6463,-0.6463,-0.6549,-0.655,0,0,0,0,0,0,0,0,0,0,0,-0.6336,-0.6336,-0.6375,-0.6377,-0.6463,-0.6463,-0.6549,-0.655,0,0,0,0,0,0,0,0,0,0,0,-0.6336,-0.6336,-0.6337,-0.6377,-0.6463,-0.6463,-0.6549,-0.6492,0,0,0,0,0,0,0,0,0,0,-0.6413,-0.6364,-0.6336,-0.6337,-0.6378,-0.6463,-0.6463,-0.649,-0.6496,-0.65,0,-0.6501,0,-0.6527,-0.6554,-0.6554,0,0,0,-0.6387,-0.6359,-0.6395,-0.6337,-0.6378,-0.6462,-0.6427,-0.6494,-0.65,-0.6508,-0.6503,-0.6507,-0.6528,-0.6555,-0.6555,-0.6549,-0.6548,0,0,-0.6382,-0.6344,-0.639,-0.6398,-0.6384,-0.6424,-0.6429,-0.6498,-0.649,-0.6503,-0.6509,-0.653,-0.6555,-0.6555,-0.6549,-0.6549,0,0,0,-0.6362,-0.634,-0.6375,-0.6394,-0.6411,-0.6426,-0.6432,-0.6487,-0.6501,-0.651,-0.6531,-0.6555,-0.6556,-0.655,-0.6549,-0.6488,0,0,0,-0.6359,-0.6329,-0.6372,-0.635,-0.641,-0.645,-0.6419,-0.6496,-0.6505,-0.653,-0.6555,-0.6557,-0.6551,-0.6549,-0.6491,-0.6465,0,0,0,-0.6335,-0.6326,-0.6334,-0.6348,-0.6384,-0.645,-0.6469,-0.6499,-0.6517,-0.6554,-0.6557,-0.6551,-0.655,-0.6494,-0.647,-0.6453,0,0,0,-0.6298,-0.6279,-0.6332,-0.6318,-0.6382,-0.6412,-0.6469,-0.6493,-0.6517,-0.6556,-0.655,-0.6549,-0.6495,-0.6473,-0.6455,-0.6431,-0.6418,0,0,-0.6252,-0.6272,-0.6266,-0.6317,-0.6327,-0.6402,-0.6403,-0.6461,-0.6499,-0.653,-0.653,-0.649,-0.647,-0.6453,-0.6356,-0.6345,0,0,0,-0.6239,-0.6234,-0.6245,-0.6267,-0.6311,-0.6347,-0.6409,-0.643,-0.6458,-0.6507,-0.6481,-0.647,-0.6461,-0.6452,-0.6442,-0.6437,-0.6543,-0.6543,-0.6543,-0.6119,-0.6169,-0.6163,-0.6222,-0.6242,-0.6307,-0.6327,-0.6367,-0.6411,-0.6404,-0.6413,-0.6348,-0.6335,-0.6328,-0.6322,-0.6405,-0.6404,-0.6404,-0.6404,-0.6055,-0.6057,-0.6116,-0.6131,-0.6183,-0.6196,-0.6256,-0.6287,-0.6306,-0.6345,-0.634,-0.6378,-0.6315,-0.6312,-0.64,-0.6401,-0.6401,-0.6402,-0.6402,-0.5982,-0.5991,-0.6018,-0.6055,-0.6077,-0.6138,-0.6153,-0.6201,-0.6245,-0.624,-0.6254,-0.6256,-0.6262,-0.6244,-0.6243,-0.6243,-0.6243,-0.6243,-0.6243,-0.5896,-0.5928,-0.5936,-0.598,-0.6,-0.6032,-0.6096,-0.6116,-0.6151,-0.6184,-0.6184,-0.6228,-0.63,-0.6316,-0.6239,-0.624,-0.624,-0.6241,-0.6241,-0.5813,-0.5839,-0.5851,-0.5871,-0.5927,-0.5945,-0.6005,-0.6043,-0.6066,-0.6072,-0.6118,-0.6163,-0.6186,-0.6193,-0.6208,-0.6107,-0.6107,-0.6107,-0.6107,-0.5751,-0.5767,-0.579,-0.5818,-0.5852,-0.5907,-0.5917,-0.5966,-0.602,-0.6037,-0.6059,-0.6082,-0.6087,-0.6107,-0.6117,-0.6131,-0.6013,-0.6013,-0.6013,-0.5702,-0.5724,-0.5725,-0.5779,-0.5826,-0.5864,-0.5876,-0.5905,-0.5972,-0.601,-0.6052,-0.6056,-0.6093,-0.6103,-0.6142,-0.6156,-0.6182,0,0]},{"header":{"parameterUnit":"m.s-1","parameterCategory":1,"la1":30.2992,"la2":30.254,"lo1":-89.0895,"lo2":-89.0443,"dy":0.0025,"dx":0.0025,"nx":19,"ny":19,"refTime":"2026-05-02T21:00:00:Z","depth":0,"parameterNumber":3,"parameterNumberName":"V-component_of_WINDS"},"data":[0,0,0,-0.6606,-0.6605,-0.658,-0.658,-0.6548,-0.6548,0,0,0,0,0,0,0,0,0,0,0,-0.6613,-0.6613,-0.6606,-0.6605,-0.658,-0.658,-0.6548,-0.6548,0,0,0,0,0,0,0,0,0,0,0,-0.6613,-0.6613,-0.6612,-0.6605,-0.658,-0.658,-0.6548,-0.6567,0,0,0,0,0,0,0,0,0,0,-0.6592,-0.6598,-0.6613,-0.6612,-0.6605,-0.658,-0.658,-0.6568,-0.6566,-0.6559,0,-0.6553,0,-0.6549,-0.6545,-0.6545,0,0,0,-0.6606,-0.66,-0.6593,-0.6612,-0.6605,-0.658,-0.6591,-0.6567,-0.6565,-0.6557,-0.6552,-0.6551,-0.6549,-0.6545,-0.6545,-0.6501,-0.6501,0,0,-0.6607,-0.6609,-0.6595,-0.6591,-0.6594,-0.6592,-0.6591,-0.6565,-0.6561,-0.6552,-0.655,-0.6548,-0.6545,-0.6545,-0.6501,-0.6501,0,0,0,-0.6611,-0.6609,-0.6603,-0.6593,-0.6588,-0.6591,-0.659,-0.6562,-0.656,-0.655,-0.6548,-0.6545,-0.6544,-0.6502,-0.6501,-0.6489,0,0,0,-0.6612,-0.6612,-0.6604,-0.6604,-0.6588,-0.6574,-0.6587,-0.6562,-0.6559,-0.6548,-0.6545,-0.6544,-0.6502,-0.6502,-0.649,-0.6483,0,0,0,-0.6615,-0.6612,-0.6608,-0.6605,-0.6593,-0.6575,-0.6571,-0.6561,-0.6558,-0.6545,-0.6544,-0.6502,-0.6502,-0.6491,-0.6484,-0.6471,0,0,0,-0.6619,-0.6599,-0.6608,-0.6585,-0.6594,-0.6567,-0.6571,-0.6552,-0.654,-0.6545,-0.6502,-0.6501,-0.6491,-0.6485,-0.6472,-0.6459,-0.6453,0,0,-0.6594,-0.6596,-0.6582,-0.6589,-0.6561,-0.6571,-0.6542,-0.6531,-0.653,-0.6511,-0.651,-0.649,-0.6485,-0.6471,-0.6426,-0.6422,0,0,0,-0.6575,-0.6565,-0.6557,-0.6545,-0.6535,-0.6525,-0.6518,-0.6514,-0.6498,-0.652,-0.6482,-0.6479,-0.6471,-0.6464,-0.6461,-0.6453,-0.6499,-0.6499,-0.6499,-0.6542,-0.654,-0.6517,-0.6511,-0.6499,-0.6491,-0.6481,-0.6475,-0.6478,-0.6469,-0.6463,-0.6436,-0.6428,-0.6426,-0.6418,-0.6457,-0.6457,-0.6457,-0.6457,-0.6505,-0.649,-0.6493,-0.6471,-0.6469,-0.6452,-0.6443,-0.6446,-0.6429,-0.644,-0.6433,-0.6444,-0.6421,-0.6414,-0.6456,-0.6456,-0.6456,-0.6456,-0.6456,-0.6482,-0.6474,-0.6468,-0.6449,-0.6435,-0.6431,-0.6414,-0.6414,-0.6414,-0.6407,-0.64,-0.64,-0.6399,-0.6404,-0.6404,-0.6403,-0.6403,-0.6403,-0.6403,-0.646,-0.6454,-0.6439,-0.6426,-0.6417,-0.6405,-0.6397,-0.6389,-0.638,-0.6381,-0.6381,-0.6384,-0.6419,-0.6428,-0.6402,-0.6402,-0.6402,-0.6402,-0.6402,-0.6422,-0.643,-0.6407,-0.6398,-0.6382,-0.6367,-0.6367,-0.635,-0.6343,-0.6335,-0.6339,-0.6366,-0.6368,-0.6371,-0.6378,-0.634,-0.634,-0.634,-0.634,-0.6402,-0.6403,-0.6378,-0.6363,-0.6349,-0.6346,-0.6321,-0.6314,-0.6308,-0.6304,-0.631,-0.6319,-0.6322,-0.6322,-0.6326,-0.6332,-0.6284,-0.6284,-0.6284,-0.6378,-0.6377,-0.6354,-0.6347,-0.6334,-0.6323,-0.6299,-0.6282,-0.6278,-0.6282,-0.63,-0.6303,-0.6318,-0.6323,-0.6326,-0.6332,-0.6344,0,0]}]]